Weather observations for the past three days for
Daniel K Inouye International Airport
Metric (Imperial)
Date Time (hst) Wind (kph) Vis. (km) Weather Sky Cond. Temperature (ºC) Relative Humidity Wind Chill (°C) Heat Index (°C) Pressure Precipitation (cm)
Air Dwpt 6 hour altimeter (cm) sea level (mb) 1 hr 3 hr 6 hr
Max. Min.
06 12:53 NE 19 16.09 Mostly Cloudy FEW019 SCT027 BKN050 26.7 23.9 85% 29 75.69 1008.9
06 11:53 E 19 16.09 Mostly Cloudy FEW020 SCT029 BKN041 27.8 22.8 74% 31 75.74 1009.6
06 10:53 E 28 G 37 16.09 Partly Cloudy FEW025 SCT037 SCT060 29.4 21.7 63% 32 75.74 1009.8
06 09:53 NE 13 16.09 Mostly Cloudy FEW019 SCT027 BKN048 27.8 21.7 69% 30 75.79 1010.4
06 08:53 E 13 16.09 Mostly Cloudy FEW018 SCT039 BKN048 27.2 22.2 74% 30 75.77 1010.2
06 07:53 NW 7 16.09 Mostly Cloudy FEW018 SCT033 BKN110 25.6 22.8 25.6 24.4 85% 27 75.74 1009.7
06 06:53 N 11 16.09 Mostly Cloudy FEW018 SCT035 BKN055 24.4 22.2 88% 25 75.69 1009.0
06 05:53 N 9 12.87 Light Rain FEW018 SCT038 OVC055 24.4 22.2 88% 25 75.69 1009.0
06 04:53 NE 13 16.09 Overcast FEW020 SCT029 OVC039 25 21.7 82% 26 75.67 1008.7
06 03:53 E 19 16.09 Mostly Cloudy FEW022 SCT035 BKN060 25.6 21.1 76% 27 75.67 1008.8
06 02:53 NE 15 16.09 Mostly Cloudy FEW022 SCT035 BKN060 25.6 21.7 79% 27 75.69 1009.0
06 01:53 E 20 16.09 Partly Cloudy FEW022 SCT035 SCT046 25 21.1 26.7 25 79% 26 75.74 1009.6
06 00:53 NE 15 12.87 Light Rain FEW022 BKN035 OVC046 25.6 22.8 85% 27 75.77 1010.2
05 23:53 NE 15 16.09 Partly Cloudy FEW025 SCT046 26.7 21.7 74% 29 75.79 1010.5
05 22:53 NE 13 16.09 Partly Cloudy FEW025 SCT046 26.1 21.7 77% 28 75.84 1011.1
05 21:53 N 13 16.09 A Few Clouds FEW026 FEW042 26.1 21.1 74% 28 75.87 1011.4
05 20:53 NE 9 16.09 A Few Clouds FEW027 FEW042 26.1 21.1 74% 28 75.82 1010.9
05 19:53 NE 11 16.09 Partly Cloudy FEW027 SCT042 26.7 21.1 30 25.6 71% 28 75.77 1010.2
05 18:53 N 15 16.09 A Few Clouds FEW027 FEW042 26.1 21.1 74% 28 75.74 1009.7
05 17:53 E 30 G 41 16.09 Partly Cloudy FEW027 FEW035 SCT049 27.2 21.1 69% 29 75.72 1009.5
05 16:53 E 24 G 46 16.09 Mostly Cloudy FEW027 SCT035 BKN049 27.8 21.1 67% 30 75.69 1008.9
05 15:53 NE 31 G 41 16.09 Mostly Cloudy FEW024 BKN031 BKN040 28.3 21.1 65% 31 75.72 1009.2
05 14:53 NE 24 G 33 16.09 Mostly Cloudy FEW024 BKN030 BKN043 28.3 20.6 63% 30 75.72 1009.5
05 13:53 E 30 G 37 16.09 Mostly Cloudy FEW023 SCT033 BKN044 29.4 21.7 31.7 27.2 63% 32 75.74 1009.9
05 12:53 NE 30 G 41 16.09 Mostly Cloudy FEW024 BKN034 29.4 21.1 61% 32 75.77 1010.2
05 11:53 NE 24 G 39 16.09 Partly Cloudy FEW025 SCT036 30.6 20.6 55% 33 75.84 1011.0
05 10:53 NE 24 G 41 16.09 A Few Clouds FEW025 FEW039 30.6 20 53% 33 75.87 1011.5
05 07:53 NE 26 16.09 A Few Clouds FEW024 FEW038 FEW060 26.7 20 27.2 24.4 67% 28 75.84 1011.0
05 06:53 NE 15 16.09 A Few Clouds FEW024 FEW036 FEW060 25 20 74% 26 75.82 1010.6
05 05:53 NE 13 16.09 Partly Cloudy FEW024 FEW036 SCT060 25 20.6 77% 26 75.79 1010.3
05 04:53 NE 17 16.09 Mostly Cloudy FEW022 SCT036 BKN060 25.6 20.6 74% 27 75.79 1010.3
05 03:53 E 9 16.09 Partly Cloudy FEW022 FEW045 SCT060 25 20.6 77% 26 75.79 1010.5
05 02:53 NE 11 G 30 16.09 Light Rain FEW022 SCT045 BKN060 26.1 20 69% 27 75.82 1010.6
05 01:53 NE 24 G 39 16.09 Mostly Cloudy FEW022 BKN055 26.1 20 26.1 25.6 69% 27 75.84 1011.2
05 00:53 NE 22 G 37 16.09 A Few Clouds FEW024 FEW040 26.1 19.4 67% 27 75.87 1011.6
04 23:53 NE 20 16.09 A Few Clouds FEW024 FEW040 26.1 19.4 67% 27 75.92 1012.0
04 22:53 NE 28 16.09 Partly Cloudy FEW023 SCT040 26.1 19.4 67% 27 75.95 1012.3
04 21:53 NE 11 16.09 A Few Clouds FEW025 FEW050 26.1 19.4 67% 27 75.97 1012.8
04 20:53 NE 22 16.09 Partly Cloudy FEW025 SCT037 26.1 20 69% 27 75.95 1012.4
04 19:53 NE 19 16.09 A Few Clouds FEW025 26.1 18.9 30.6 26.1 65% 27 75.9 1011.7
04 18:53 NE 22 G 41 16.09 Partly Cloudy FEW025 SCT035 26.7 18.3 60% 28 75.84 1011.2
04 17:53 E 33 G 46 16.09 A Few Clouds and Breezy FEW028 FEW040 27.8 17.8 55% 29 75.84 1011.0
04 16:53 NE 28 16.09 A Few Clouds FEW030 FEW040 28.9 18.3 53% 30 75.82 1010.8
04 15:53 NE 30 G 46 16.09 Partly Cloudy FEW028 SCT040 29.4 17.2 48% 30 75.84 1011.0
04 14:53 NE 24 G 41 16.09 A Few Clouds FEW030 FEW042 29.4 17.2 48% 30 75.84 1010.9
04 13:53 NE 30 G 52 16.09 A Few Clouds FEW025 FEW042 30.6 17.8 31.1 26.7 46% 31 75.87 1011.5
04 12:53 E 30 G 52 16.09 A Few Clouds FEW025 FEW045 30 18.3 49% 31 75.92 1012.2
04 11:53 E 30 G 54 16.09 A Few Clouds FEW025 FEW050 31.1 19.4 50% 33 75.95 1012.6
04 10:53 NE 33 G 52 16.09 Partly Cloudy and Breezy FEW025 SCT040 29.4 19.4 55% 31 75.97 1012.7
04 09:53 NE 33 G 48 16.09 Partly Cloudy and Breezy FEW025 SCT037 28.3 19.4 59% 30 75.95 1012.6
04 08:53 NE 30 G 46 16.09 Partly Cloudy FEW026 SCT043 27.2 18.9 61% 28 75.95 1012.5
04 07:53 NE 22 G 31 16.09 Partly Cloudy FEW025 SCT041 SCT060 26.7 19.4 26.7 23.9 64% 28 75.95 1012.3
04 06:53 NE 11 16.09 Partly Cloudy FEW025 SCT037 24.4 19.4 74% 25 75.92 1012.1
04 05:53 NE 20 16.09 Partly Cloudy FEW020 SCT035 SCT045 23.9 20.6 82% 24 75.92 1012.0
04 04:53 NE 22 16.09 Partly Cloudy FEW025 SCT040 SCT050 25 20 74% 26 75.9 1011.8
04 03:53 E 19 16.09 Mostly Cloudy FEW025 SCT035 BKN045 25 20 74% 26 75.9 1011.8
04 02:53 E 20 16.09 Mostly Cloudy FEW020 BKN035 BKN045 25 20 74% 26 75.92 1012.1
04 00:53 E 30 G 48 16.09 Mostly Cloudy FEW025 BKN040 26.1 20 69% 27 75.97 1012.9
03 23:53 NE 9 16.09 A Few Clouds FEW025 FEW040 25.6 19.4 69% 27 76 1013.2
03 22:53 NE 13 16.09 Partly Cloudy FEW025 SCT040 26.1 18.9 65% 27 76.05 1013.7
03 21:53 E 11 16.09 Partly Cloudy FEW025 SCT035 SCT043 26.7 18.9 62% 28 76.05 1013.8
03 20:53 NE 20 16.09 Partly Cloudy FEW025 FEW038 SCT050 26.7 18.9 62% 28 76.02 1013.5
03 19:53 NE 28 G 39 16.09 Mostly Cloudy FEW025 FEW036 BKN050 26.7 18.9 30.6 26.7 62% 28 76 1013.3
03 18:53 Vrbl 11 G 30 16.09 Partly Cloudy FEW025 FEW033 SCT043 26.7 19.4 64% 28 75.97 1012.7
03 17:53 E 33 G 54 16.09 Mostly Cloudy and Breezy FEW024 SCT031 BKN045 27.2 20 65% 29 75.92 1012.0
03 16:53 NE 28 G 48 16.09 Mostly Cloudy FEW024 SCT032 BKN045 28.9 20.6 61% 31 75.9 1011.8
03 15:53 NE 35 G 50 16.09 Mostly Cloudy and Breezy FEW024 SCT031 BKN042 28.3 20 61% 30 75.92 1012.0
03 14:53 E 30 G 43 16.09 Partly Cloudy FEW023 SCT033 SCT045 29.4 19.4 55% 31 75.9 1011.8
03 13:53 E 30 G 56 16.09 Mostly Cloudy FEW023 SCT034 BKN045 30.6 20.6 31.1 26.1 55% 33 75.95 1012.3
Date Time (hst) Wind (kph) Vis. (km) Weather Sky Cond. Air Dwpt Max. Min. Relative Humidity Wind Chill (°C) Heat Index (°C) altimeter (cm) sea level (mb) 1 hr 3 hr 6 hr
6 hour
Temperature (ºC) Pressure Precipitation (cm)